Date,TemperatureHighF,TemperatureAvgF,TemperatureLowF,DewpointHighF,DewpointAvgF,DewpointLowF,HumidityHigh,HumidityAvg,HumidityLow,PressureMaxIn,PressureMinIn,WindSpeedMaxMPH,WindSpeedAvgMPH,GustSpeedMaxMPH,PrecipitationSumIn
2013-1-1,77.8,72.8,68.9,67.0,64.1,60.0,90,74,63,30.17,30.05,8,2,15,0.00
2013-1-2,79.2,72.5,67.0,69.0,67.2,64.0,93,84,62,30.10,30.01,6,1,9,0.00
2013-1-3,76.5,73.2,70.4,71.0,69.9,68.0,93,89,82,30.14,30.04,7,2,9,0.00
2013-1-4,76.7,74.4,72.2,74.0,72.4,71.0,96,93,90,30.21,30.11,6,2,8,0.00
2013-1-5,77.4,74.4,72.3,74.0,72.3,71.0,97,93,87,30.22,30.14,11,3,12,0.01
2013-1-6,81.1,75.4,72.2,73.0,71.7,70.0,96,88,75,30.18,30.07,7,2,13,0.00
2013-1-7,78.6,75.1,72.5,75.0,72.7,71.0,95,92,86,30.14,30.05,8,2,10,0.00
2013-1-8,80.8,76.2,73.7,75.0,72.8,71.0,94,89,80,30.19,30.06,10,4,14,0.00
2013-1-9,79.6,76.3,74.6,74.0,72.0,69.0,91,86,79,30.28,30.16,11,4,13,0.00
2013-1-10,78.8,75.5,73.6,72.0,69.5,67.0,88,81,77,30.28,30.18,14,5,16,0.00
2013-1-11,77.2,74.2,72.9,72.0,70.5,69.0,90,88,78,30.24,30.14,13,6,17,0.00
2013-1-12,76.5,74.2,72.7,70.0,68.8,67.0,87,83,78,30.16,30.08,12,5,14,0.00
2013-1-13,77.5,73.9,71.8,68.0,65.1,63.0,82,74,62,30.15,30.06,9,4,13,0.00
2013-1-14,77.1,73.9,70.7,70.0,67.2,63.0,88,79,73,30.17,30.10,9,4,13,0.00
2013-1-15,77.3,73.9,71.4,70.0,67.9,65.0,90,81,67,30.13,30.05,11,5,15,0.00
2013-1-16,76.4,74.3,72.4,71.0,70.0,69.0,90,86,82,30.12,30.02,12,4,13,0.00
2013-1-17,80.7,75.0,71.4,72.0,70.2,68.0,94,85,73,30.12,30.00,7,2,10,0.00
2013-1-18,74.7,72.2,69.7,70.0,67.5,65.0,95,85,77,30.16,30.03,16,7,18,0.00
2013-1-19,77.6,73.6,71.1,71.0,69.3,68.0,93,86,80,30.17,30.07,9,4,12,0.00
2013-1-20,77.3,73.3,70.7,73.0,70.0,69.0,95,89,81,30.12,30.00,6,1,8,0.00
2013-1-21,80.6,74.6,70.5,71.0,69.4,68.0,92,84,70,30.08,29.98,5,1,9,0.00
2013-1-22,79.4,72.9,68.7,71.0,68.3,65.0,95,85,73,30.12,29.96,20,6,30,0.00
2013-1-23,73.0,71.5,70.3,65.0,61.4,59.0,79,71,63,30.22,30.11,21,12,24,0.00
2013-1-24,72.8,70.8,69.8,62.0,59.9,56.0,75,69,60,30.25,30.16,14,9,19,0.00
2013-1-25,74.9,71.9,69.8,66.0,60.3,57.0,82,67,58,30.24,30.15,16,7,18,0.00
2013-1-26,75.0,72.8,71.1,69.0,67.6,65.0,86,83,79,30.21,30.14,13,4,15,0.00
2013-1-27,77.0,73.6,71.9,68.0,66.1,65.0,82,77,72,30.27,30.16,12,5,16,0.00
2013-1-28,76.8,73.5,71.4,70.0,67.2,64.0,90,81,74,30.29,30.21,14,5,16,0.00
2013-1-29,76.3,73.0,71.2,68.0,66.7,64.0,88,80,73,30.24,30.14,11,5,16,0.00
2013-1-30,79.2,74.3,71.3,72.0,69.0,64.0,94,84,76,30.15,29.97,11,3,17,0.00
2013-1-31,82.1,75.8,72.7,75.0,72.5,70.0,95,89,79,30.09,29.99,11,4,15,0.04
2013-2-1,73.3,70.1,68.2,71.0,64.3,58.0,95,82,68,30.19,30.07,22,12,24,0.01
2013-2-2,72.5,70.1,68.4,62.0,59.7,57.0,77,70,63,30.21,30.09,17,7,19,0.00
2013-2-3,73.0,70.2,67.9,62.0,58.7,53.0,80,67,50,30.11,30.01,16,6,18,0.00
2013-2-4,73.5,69.4,66.4,61.0,54.9,49.0,74,61,48,30.12,30.02,11,4,13,0.00
2013-2-5,75.8,71.8,69.2,66.0,63.5,60.0,86,75,67,30.08,30.00,8,2,10,0.00
2013-2-6,76.3,72.6,69.4,67.0,66.2,64.0,91,80,66,30.10,30.01,9,4,13,0.00
2013-2-7,79.6,73.8,69.6,73.0,70.2,67.0,95,89,77,30.06,29.95,9,2,12,0.00
2013-2-8,82.2,75.1,70.6,73.0,70.9,68.0,97,87,66,30.03,29.94,10,3,17,0.00
2013-2-9,75.8,73.2,70.1,71.0,66.6,63.0,97,80,72,30.15,30.00,14,7,17,0.04
2013-2-10,74.7,72.1,70.5,65.0,63.1,61.0,79,73,68,30.24,30.13,18,8,20,0.00
2013-2-11,79.1,73.6,70.1,66.0,62.9,61.0,82,70,55,30.23,30.14,12,3,17,0.00
2013-2-12,80.8,74.5,69.8,70.0,68.1,66.0,90,81,65,30.14,30.03,9,2,15,0.00
2013-2-13,82.0,74.9,70.1,71.0,68.6,67.0,92,81,64,30.06,29.96,12,3,17,0.00
2013-2-14,81.2,75.4,70.7,73.0,71.0,69.0,95,86,74,30.03,29.93,11,3,18,0.00
2013-2-15,83.3,76.5,72.2,75.0,72.1,69.0,95,86,71,30.00,29.91,14,5,17,0.00
2013-2-16,77.2,71.7,67.9,71.0,66.9,54.0,96,85,58,29.98,29.82,17,5,20,1.23
2013-2-17,69.6,64.1,62.2,57.0,50.6,47.0,71,62,54,30.23,29.98,19,10,27,0.00
2013-2-18,70.5,66.5,62.0,60.0,53.4,46.0,75,63,54,30.29,30.20,14,8,21,0.00
2013-2-19,75.7,71.7,68.0,68.0,64.3,57.0,91,78,69,30.20,30.10,10,4,16,0.00
2013-2-20,76.6,72.6,68.6,71.0,68.2,66.0,96,86,71,30.10,30.01,8,2,8,0.00
2013-2-21,77.2,73.9,71.5,70.0,68.3,66.0,92,82,75,30.09,30.01,11,5,13,0.00
2013-2-22,78.2,74.5,72.1,73.0,71.2,70.0,94,89,82,30.12,30.02,9,3,14,0.00
2013-2-23,82.0,76.2,72.8,73.0,71.3,69.0,94,85,73,30.08,29.96,10,2,14,0.00
2013-2-24,82.6,76.8,73.1,75.0,73.0,71.0,94,88,77,30.01,29.92,10,3,17,0.00
2013-2-25,82.7,76.8,72.6,74.0,72.2,71.0,96,86,69,29.95,29.85,12,2,14,0.00
2013-2-26,83.9,78.0,73.6,77.0,73.8,71.0,93,87,78,29.95,29.85,15,4,18,0.00
2013-2-27,84.8,78.8,74.2,77.0,74.3,72.0,95,87,68,29.98,29.89,14,4,17,0.00
2013-2-28,78.6,74.7,72.5,73.0,68.2,61.0,94,80,66,29.94,29.87,11,3,15,0.00
2013-3-1,76.0,70.9,65.5,64.0,61.8,59.0,90,73,65,29.94,29.86,9,3,14,0.02
2013-3-2,70.0,63.2,59.8,64.0,57.7,49.0,95,83,62,29.98,29.88,14,6,22,0.72
2013-3-3,67.1,63.7,61.9,58.0,51.6,46.0,79,65,55,30.06,29.91,11,4,19,0.00
2013-3-4,66.5,63.2,60.0,55.0,50.9,45.0,73,65,55,30.16,30.05,13,7,21,0.00
2013-3-5,71.8,65.5,57.5,59.0,55.9,53.0,85,72,59,30.17,30.09,7,2,11,0.00
2013-3-6,79.4,69.9,58.1,66.0,59.0,50.0,91,70,42,30.10,29.96,12,3,16,0.00
2013-3-7,71.2,68.2,65.8,61.0,54.0,47.0,71,61,46,30.14,29.97,12,6,18,0.00
2013-3-8,71.4,68.5,66.2,58.0,54.4,51.0,70,61,55,30.16,30.08,13,6,15,0.00
2013-3-9,71.3,68.5,66.9,57.0,55.2,53.0,68,63,57,30.16,30.07,18,9,18,0.00
2013-3-10,74.3,70.5,68.3,62.0,58.2,55.0,72,65,56,30.12,30.04,13,7,16,0.00
2013-3-11,76.3,71.7,68.6,64.0,60.5,57.0,77,68,58,30.10,30.00,14,4,15,0.00
2013-3-12,79.9,74.1,70.1,69.0,67.1,64.0,89,79,68,30.05,29.96,11,2,15,0.00
2013-3-13,78.4,72.7,69.9,72.0,68.5,61.0,93,86,73,30.05,29.96,13,5,17,0.24
2013-3-14,71.6,68.8,66.7,63.0,57.6,53.0,78,68,52,30.13,30.01,14,9,21,0.00
2013-3-15,69.5,67.2,65.3,56.0,53.4,50.0,67,62,51,30.21,30.08,16,8,19,0.00
2013-3-16,72.7,68.3,65.0,58.0,53.6,51.0,73,60,51,30.20,30.10,7,2,10,0.00
2013-3-17,78.2,70.3,63.0,63.0,59.1,55.0,87,68,53,30.16,30.06,8,1,12,0.00
2013-3-18,80.3,73.6,67.9,71.0,67.5,62.0,94,82,70,30.11,29.97,11,2,15,0.00
2013-3-19,81.1,73.8,70.8,73.0,71.2,69.0,96,91,75,29.99,29.91,12,2,15,0.23
2013-3-20,81.1,74.8,70.6,72.0,69.5,67.0,91,84,67,29.95,29.82,8,3,10,0.00
2013-3-21,77.9,73.0,69.6,69.0,65.5,62.0,94,78,62,29.93,29.78,12,4,19,0.00
2013-3-22,76.0,72.2,66.9,70.0,64.2,61.0,89,76,68,30.03,29.91,8,2,11,0.00
2013-3-23,83.4,77.1,72.9,75.0,73.0,70.0,95,87,76,30.02,29.85,16,4,17,0.00
2013-3-24,83.8,78.7,74.9,77.0,75.2,73.0,95,89,79,29.91,29.73,13,6,24,0.00
2013-3-25,88.9,79.3,73.8,75.0,73.0,67.0,95,82,59,29.93,29.77,13,5,22,0.02
2013-3-26,76.6,71.3,65.7,66.0,59.4,52.0,82,66,57,30.12,29.92,16,8,21,0.13
2013-3-27,69.3,66.6,64.4,53.0,50.9,49.0,64,57,50,30.18,30.07,16,8,19,0.00
2013-3-28,70.2,67.5,65.2,56.0,52.0,48.0,66,58,52,30.21,30.12,13,6,16,0.00
2013-3-29,72.3,68.7,66.3,58.0,54.8,52.0,71,62,51,30.25,30.16,14,7,17,0.00
2013-3-30,72.5,69.0,66.0,62.0,56.4,52.0,76,65,51,30.25,30.16,12,6,15,0.00
2013-3-31,79.7,73.7,69.6,67.0,64.7,62.0,82,74,63,30.19,30.08,12,5,18,0.00
2013-4-1,81.4,74.6,68.7,73.0,68.6,62.0,91,82,71,30.09,29.96,16,4,22,0.04
2013-4-2,79.2,74.5,68.6,73.0,70.8,66.0,97,88,78,30.07,29.98,9,3,11,0.01
2013-4-3,81.1,75.9,71.8,71.0,70.0,69.0,92,82,70,30.08,30.00,10,3,13,0.00
2013-4-4,83.6,76.9,73.0,75.0,71.5,68.0,92,84,74,30.07,29.97,11,4,15,0.00
2013-4-5,79.3,75.3,67.9,75.0,72.4,67.0,96,90,82,29.99,29.82,16,4,23,1.34
2013-4-6,77.8,72.8,67.3,69.0,67.3,64.0,97,83,72,30.07,29.85,16,6,17,0.42
2013-4-7,77.0,73.7,71.4,67.0,64.6,63.0,80,73,68,30.11,30.00,13,6,15,0.00
2013-4-8,78.7,74.5,70.2,68.0,64.5,60.0,81,71,61,30.12,30.03,8,2,11,0.00
2013-4-9,78.6,75.5,73.4,72.0,69.9,68.0,89,83,76,30.14,30.04,15,5,16,0.00
2013-4-10,82.7,77.5,74.6,74.0,71.7,69.0,89,82,73,30.09,30.01,10,5,17,0.00
2013-4-11,83.1,77.7,73.6,74.0,71.5,68.0,90,81,73,30.05,29.94,10,4,16,0.00
2013-4-12,84.1,79.1,76.2,76.0,74.3,73.0,92,85,76,30.01,29.92,11,3,18,0.00
2013-4-13,84.8,79.5,76.4,76.0,74.7,74.0,92,85,73,30.01,29.89,9,3,17,0.00
2013-4-14,83.6,78.4,74.1,75.0,73.7,72.0,92,85,75,30.01,29.93,14,4,18,0.00
2013-4-15,86.1,80.3,76.5,77.0,74.9,73.0,91,83,72,30.06,29.95,10,2,14,0.00
2013-4-16,83.7,79.6,76.6,76.0,74.5,73.0,90,84,76,30.09,30.01,12,4,14,0.00
2013-4-17,81.3,78.7,76.5,74.0,72.9,71.0,86,82,77,30.08,30.00,12,5,17,0.00
2013-4-18,84.9,80.2,76.0,74.0,71.9,69.0,83,76,64,30.07,29.98,12,4,14,0.00
2013-4-19,85.0,80.4,77.4,74.0,72.3,71.0,83,76,67,30.07,30.01,14,6,20,0.00
2013-4-20,86.5,80.7,77.6,74.0,72.8,72.0,84,77,66,30.07,29.98,10,4,17,0.00
2013-4-21,83.8,78.8,76.9,73.0,70.3,68.0,84,75,63,30.11,30.00,10,3,14,0.00
2013-4-22,81.2,76.4,73.0,73.0,71.6,69.0,92,85,73,30.03,29.93,9,2,15,0.68
2013-4-23,80.4,76.5,70.6,73.0,71.2,68.0,93,84,74,30.03,29.91,20,4,22,0.00
2013-4-24,79.9,76.7,74.2,70.0,66.8,63.0,83,72,61,30.11,29.99,17,9,19,0.00
2013-4-25,79.9,76.2,73.8,67.0,64.9,62.0,76,68,59,30.16,30.05,15,8,21,0.00
2013-4-26,78.1,74.9,72.6,67.0,64.1,59.0,79,69,62,30.18,30.09,17,9,21,0.00
2013-4-27,81.0,77.0,74.0,71.0,69.1,67.0,83,77,68,30.15,30.05,15,7,19,0.00
2013-4-28,79.5,76.2,74.2,70.0,67.4,65.0,80,74,67,30.09,30.00,18,7,18,0.00
2013-4-29,83.2,77.7,74.0,71.0,69.0,66.0,83,75,64,30.04,29.95,10,4,14,0.00
2013-4-30,80.8,76.4,75.2,73.0,71.1,70.0,90,83,76,30.00,29.93,11,3,12,0.14
2013-5-6,80.0,77.7,72.3,66.0,64.3,63.0,72,64,59,30.00,29.94,13,5,14,0.00
2013-5-7,83.4,75.6,67.8,71.0,65.7,61.0,80,72,51,30.08,29.95,10,3,12,0.00
2013-5-8,85.8,79.5,73.1,75.0,71.5,66.0,87,77,66,30.13,30.04,12,2,12,0.00
2013-5-9,81.8,78.8,77.1,76.0,74.5,73.0,90,86,82,30.14,30.05,11,3,13,0.00
2013-5-10,85.7,80.5,76.8,75.0,73.7,71.0,89,80,68,30.12,30.04,9,3,14,0.00
2013-5-11,86.0,79.9,76.0,73.0,71.0,69.0,83,74,65,30.09,30.01,9,3,12,0.00
2013-5-12,85.9,79.9,75.1,72.0,69.7,68.0,81,71,60,30.07,29.97,9,2,12,0.00
2013-5-13,86.5,80.1,73.8,73.0,70.2,67.0,88,72,58,30.07,30.00,10,2,13,0.01
2013-5-14,79.9,77.4,74.8,74.0,67.1,62.0,91,71,58,30.13,30.00,23,11,25,0.00
2013-5-15,78.5,75.3,73.7,66.0,62.6,59.0,72,65,59,30.16,30.08,13,8,20,0.00
2013-5-16,82.6,77.3,72.6,69.0,65.1,60.0,78,66,57,30.09,30.03,9,4,14,0.00
2013-5-17,83.5,78.8,75.4,73.0,70.0,68.0,82,75,66,30.10,30.01,10,3,13,0.01
2013-5-18,83.2,78.9,75.1,72.0,70.0,67.0,80,74,67,30.11,30.04,11,4,13,0.00
2013-5-19,85.6,80.1,76.1,74.0,72.2,70.0,86,77,65,30.09,30.00,10,4,15,0.00
2013-5-20,85.7,80.1,76.8,74.0,71.8,69.0,82,76,66,30.08,30.00,10,5,17,0.00
2013-5-21,86.3,77.2,68.5,75.0,72.2,68.0,98,85,70,30.03,29.94,20,5,35,10.85
2013-5-22,85.6,77.0,69.1,77.0,73.4,69.0,99,89,73,30.00,29.92,10,3,14,0.52
2013-5-23,87.1,80.7,73.5,78.0,75.4,70.0,95,84,73,30.03,29.94,10,3,13,0.41
2013-5-24,88.0,79.7,75.0,77.0,74.0,69.0,94,83,54,30.06,29.95,9,2,15,0.26
2013-5-25,82.3,79.1,74.7,75.0,73.2,68.0,91,82,66,30.12,30.01,15,6,19,0.00
2013-5-26,81.3,77.3,76.0,74.0,70.3,-99.9,90,81,77,30.13,30.05,18,-4,23,0.08
2013-5-27,83.2,79.3,75.5,76.0,73.9,72.0,91,83,76,30.12,30.04,16,7,19,0.13
2013-5-28,78.9,76.1,71.3,75.0,73.3,70.0,97,91,84,30.10,30.04,17,5,25,0.97
2013-5-29,78.4,74.4,70.9,75.0,72.6,70.0,98,94,85,30.09,30.01,15,6,22,1.24
2013-5-30,77.8,75.8,73.4,75.0,73.0,71.0,97,91,86,30.07,30.00,15,7,23,1.09
2013-5-31,79.6,75.5,73.9,77.0,72.4,-99.9,98,92,88,30.07,29.99,11,-7,16,0.61
2013-6-1,86.0,78.7,74.4,77.0,75.2,73.0,96,89,73,30.04,29.97,6,2,11,0.02
2013-6-2,83.1,77.8,75.5,78.0,73.7,-99.9,96,89,80,30.01,29.95,6,-9,9,0.03
2013-6-3,83.3,79.6,74.3,77.0,75.2,73.0,95,86,75,30.02,29.92,6,1,9,0.00
2013-6-4,84.2,79.8,77.9,78.0,74.9,-99.9,92,87,81,30.04,29.95,8,-8,11,0.00
2013-6-5,86.4,81.8,79.2,79.0,77.2,75.0,91,86,76,30.02,29.92,9,3,15,0.00
2013-6-6,89.6,83.2,80.0,81.0,78.4,76.0,91,85,74,29.93,29.85,10,4,17,0.01
2013-6-7,87.1,80.9,74.9,81.0,77.3,73.0,96,89,80,29.99,29.89,8,3,23,0.75
2013-6-8,86.1,81.9,79.6,78.0,75.9,74.0,90,82,70,30.07,29.97,10,4,14,0.00
2013-6-9,86.1,81.9,78.4,77.0,75.7,74.0,89,81,71,30.06,29.98,15,5,16,0.04
2013-6-10,87.7,83.0,79.8,79.0,76.8,75.0,86,81,74,30.04,29.95,11,4,16,0.00
2013-6-11,87.4,82.8,79.9,79.0,76.5,75.0,88,81,71,30.04,29.98,11,4,13,0.00
2013-6-12,84.2,79.6,75.7,76.0,73.3,-99.9,93,83,68,30.06,29.97,7,-9,16,0.00
2013-6-13,86.5,81.2,77.2,77.0,74.1,72.0,89,79,66,30.01,29.92,13,2,13,0.00
2013-6-14,85.4,77.7,72.9,78.0,71.0,-99.9,95,86,76,29.93,29.86,8,-9,17,0.01
2013-6-15,89.3,81.3,73.8,77.0,74.5,71.0,95,80,60,30.01,29.89,7,2,9,0.01
2013-6-16,86.7,83.1,79.9,77.0,75.4,74.0,84,78,69,30.05,29.96,9,3,14,0.00
2013-6-17,86.1,82.4,79.2,78.0,76.0,73.0,88,80,74,30.04,29.97,9,3,14,0.00
2013-6-18,89.1,83.4,79.8,78.0,75.8,74.0,86,78,69,30.03,29.97,10,3,16,0.00
2013-6-19,88.5,83.4,79.7,77.0,75.1,74.0,84,76,66,30.02,29.95,9,3,12,0.00
2013-6-20,87.9,83.4,80.0,78.0,75.2,73.0,83,76,68,30.06,29.97,10,4,14,0.00
2013-6-21,86.2,82.7,79.7,77.0,74.9,73.0,82,77,70,30.05,29.98,12,4,16,0.00
2013-6-22,88.0,82.1,76.3,78.0,75.2,72.0,88,80,68,30.06,29.97,10,4,15,0.07
2013-6-23,87.8,82.8,78.8,76.0,74.3,71.0,83,76,66,30.07,30.01,10,5,15,0.00
2013-6-24,86.9,82.5,78.7,78.0,75.4,73.0,89,79,71,30.10,30.01,11,5,23,0.00
2013-6-25,87.5,82.9,77.9,77.0,75.6,73.0,91,79,66,30.06,29.99,12,4,16,0.00
2013-6-26,87.8,83.1,79.5,77.0,75.3,73.0,83,77,66,30.04,29.97,13,3,14,0.00
2013-6-27,87.4,83.3,79.1,77.0,75.5,74.0,84,77,70,30.01,29.92,8,3,11,0.00
2013-6-28,89.2,83.7,79.8,78.0,76.2,75.0,88,78,66,29.95,29.86,9,2,11,0.00
2013-6-29,89.6,80.4,73.3,78.0,75.1,71.0,97,84,65,29.92,29.84,14,3,28,1.82
2013-6-30,86.5,80.2,73.7,79.0,75.8,71.0,97,86,75,29.96,29.87,8,2,15,0.11
2013-7-1,88.1,83.7,80.5,78.0,76.8,75.0,87,80,70,30.02,29.92,12,5,15,0.00
2013-7-2,88.4,83.0,79.5,80.0,77.5,73.0,91,83,72,30.09,29.96,11,5,18,0.01
2013-7-3,87.3,82.9,78.0,78.0,75.9,73.0,89,79,69,30.10,30.02,13,5,16,0.04
2013-7-4,87.9,83.5,80.6,78.0,75.8,74.0,83,77,70,30.10,30.02,12,5,19,0.00
2013-7-5,86.8,83.0,80.6,78.0,75.4,73.0,84,78,70,30.09,30.01,12,5,18,0.00
2013-7-6,87.1,82.4,79.6,78.0,74.9,73.0,83,78,71,30.06,29.97,12,4,17,0.00
2013-7-7,86.7,82.6,77.9,77.0,74.5,71.0,90,77,65,30.04,29.96,15,5,21,0.00
2013-7-8,84.7,81.2,78.8,77.0,73.4,70.0,85,77,70,30.10,29.99,14,6,19,0.07
2013-7-9,83.6,78.2,73.5,76.0,73.4,71.0,95,85,70,30.10,30.00,11,2,14,0.50
2013-7-10,81.3,80.0,78.6,77.0,76.3,75.0,92,88,80,30.01,29.98,3,1,12,0.00
2013-7-11,87.2,82.5,78.9,79.0,76.8,75.0,92,83,71,30.00,29.91,9,3,15,0.00
2013-7-12,90.2,79.9,72.9,77.0,74.5,70.0,93,84,63,29.96,29.90,12,2,16,0.43
2013-7-13,86.0,80.0,72.6,78.0,75.0,71.0,97,85,74,30.00,29.91,7,2,18,0.96
2013-7-14,85.4,81.9,79.1,77.0,75.7,74.0,87,81,73,30.02,29.96,10,3,12,0.00
2013-7-15,85.8,81.4,75.0,77.0,74.9,71.0,91,81,69,30.02,29.96,20,5,22,0.05
2013-7-16,81.0,76.3,71.0,77.0,74.0,70.0,98,92,85,30.08,29.97,20,3,20,1.95
2013-7-17,80.8,76.6,71.1,76.0,73.8,70.0,97,91,83,30.08,29.99,13,4,17,1.45
2013-7-18,86.8,81.7,78.1,80.0,77.3,74.0,93,86,77,30.09,30.02,8,2,12,0.00
2013-7-19,85.9,82.2,79.7,80.0,77.9,76.0,90,86,81,30.11,30.02,12,4,14,0.00
2013-7-20,83.0,79.4,73.0,78.0,76.2,70.0,93,89,80,30.14,30.02,8,2,14,0.13
2013-7-21,87.5,82.1,78.7,78.0,76.4,75.0,91,83,71,30.12,30.04,7,3,11,0.00
2013-7-22,87.9,82.7,79.6,79.0,76.9,75.0,89,82,73,30.11,30.05,10,3,13,0.00
2013-7-23,88.1,82.8,78.0,78.0,76.4,74.0,93,81,67,30.09,29.98,6,2,11,0.21
2013-7-24,88.6,82.4,76.9,79.0,76.0,74.0,91,81,66,30.01,29.91,8,1,10,0.00
2013-7-25,91.1,83.8,78.0,79.0,76.8,74.0,91,80,59,30.03,29.90,9,2,12,0.00
2013-7-26,90.2,84.4,76.5,79.0,76.9,75.0,94,78,65,30.03,29.96,7,1,10,0.00
2013-7-27,88.9,82.3,77.3,80.0,77.1,74.0,95,84,71,30.01,29.95,8,2,17,0.31
2013-7-28,89.6,84.5,80.0,80.0,77.4,76.0,89,79,68,30.06,29.94,8,3,14,0.00
2013-7-29,88.3,84.3,81.7,80.0,77.7,76.0,85,80,72,30.10,29.98,9,4,13,0.00
2013-7-30,88.0,84.6,82.3,80.0,77.6,75.0,84,79,71,30.11,30.02,11,4,14,0.00
2013-7-31,87.6,84.1,81.6,77.0,75.2,72.0,82,75,67,30.06,29.96,13,6,19,0.00
2013-8-1,84.3,78.8,73.7,76.0,73.7,72.0,95,85,74,30.01,29.91,10,4,18,0.51
2013-8-2,89.4,82.2,72.0,79.0,76.6,70.0,96,84,67,30.07,29.92,8,2,22,0.49
2013-8-3,90.0,84.5,80.5,81.0,78.8,77.0,90,83,74,30.10,30.02,8,2,12,0.00
2013-8-4,90.2,84.4,80.5,80.0,77.8,76.0,89,80,68,30.09,29.96,6,1,9,0.00
2013-8-5,88.4,82.0,77.4,80.0,77.0,73.0,94,85,70,30.02,29.91,6,1,12,1.11
2013-8-6,86.1,79.2,74.1,78.0,75.7,72.0,95,89,74,29.96,29.88,8,1,13,0.64
2013-8-7,88.6,83.4,78.4,78.0,76.1,72.0,90,79,69,29.97,29.90,8,3,13,0.00
2013-8-8,87.6,83.6,77.9,79.0,76.1,73.0,86,78,70,29.98,29.90,10,4,15,0.13
2013-8-9,87.6,82.5,76.1,79.0,76.5,72.0,94,82,73,30.02,29.92,10,4,15,0.04
2013-8-10,88.6,84.5,81.6,79.0,77.5,75.0,84,79,72,30.07,30.00,15,6,18,0.00
2013-8-11,86.8,84.0,82.5,79.0,77.6,76.0,87,81,74,30.08,30.01,14,7,16,0.00
2013-8-12,86.6,82.9,79.0,79.0,77.1,75.0,91,83,77,30.03,29.96,11,4,15,0.07
2013-8-13,87.5,83.8,80.4,79.0,76.3,74.0,84,78,70,30.01,29.94,11,3,12,0.00
2013-8-14,88.1,83.9,79.9,78.0,75.9,74.0,84,77,69,30.00,29.93,9,3,12,0.00
2013-8-15,86.4,80.9,73.1,80.0,76.6,71.0,96,86,77,30.04,29.93,8,2,12,0.72
2013-8-16,89.2,84.1,81.9,80.0,78.4,76.0,88,83,72,30.03,29.95,9,2,14,0.00
2013-8-17,88.1,84.6,82.2,80.0,77.6,74.0,86,79,74,30.04,29.96,9,4,13,0.00
2013-8-18,89.0,85.1,82.3,80.0,77.9,76.0,86,79,71,30.05,29.96,15,5,16,0.00
2013-8-19,88.3,84.1,78.4,79.0,77.0,75.0,93,79,69,30.03,29.92,17,4,17,0.17
2013-8-20,86.9,83.2,79.9,80.0,77.1,75.0,91,81,77,30.01,29.94,11,5,21,0.11
2013-8-21,87.7,84.2,80.9,80.0,78.2,76.0,88,82,76,30.04,29.96,12,5,16,0.00
2013-8-22,87.9,84.4,80.1,79.0,77.5,75.0,88,80,74,30.03,29.92,9,3,13,0.01
2013-8-23,88.4,84.2,80.0,79.0,77.0,75.0,88,79,70,30.00,29.91,8,3,12,0.00
2013-8-24,89.4,84.4,80.3,79.0,76.4,73.0,85,77,69,30.07,29.95,6,2,19,0.00
2013-8-25,88.2,83.9,80.1,79.0,76.6,74.0,86,79,70,30.08,29.99,9,3,14,0.00
2013-8-26,86.1,79.5,73.3,78.0,74.6,71.0,96,85,73,30.05,29.96,16,3,28,0.51
2013-8-27,86.0,81.5,77.1,78.0,75.5,72.0,90,82,74,29.99,29.92,9,3,12,0.00
2013-8-28,87.2,83.2,80.0,79.0,76.7,75.0,88,81,69,30.01,29.91,10,3,13,0.00
2013-8-29,86.4,81.2,75.1,80.0,77.8,72.0,96,89,76,29.99,29.89,7,1,11,0.17
2013-8-30,90.0,80.7,74.4,81.0,76.9,73.0,96,88,73,29.98,29.89,10,1,13,0.62
2013-8-31,87.7,82.9,78.8,80.0,76.9,74.0,88,82,73,29.97,29.89,8,2,11,0.00
2013-9-1,90.1,83.6,78.3,80.0,77.9,75.0,92,83,70,29.98,29.88,10,1,10,0.00
2013-9-2,90.7,82.4,78.8,81.0,78.2,76.0,94,87,72,30.00,29.91,5,1,10,0.07
2013-9-3,88.4,83.8,80.0,80.0,77.5,76.0,88,81,73,29.98,29.89,9,3,11,0.00
2013-9-4,89.1,84.3,80.3,79.0,77.5,75.0,89,80,69,30.03,29.91,9,3,13,0.07
2013-9-5,88.8,84.8,81.9,80.0,77.7,74.0,84,79,72,30.02,29.93,11,5,16,0.00
2013-9-6,88.1,84.1,80.6,79.0,77.5,75.0,88,80,73,29.98,29.88,8,3,17,0.11
2013-9-7,87.3,83.0,78.5,80.0,77.1,74.0,92,82,73,29.93,29.84,5,2,15,0.39
2013-9-8,87.0,83.1,81.2,79.0,77.1,75.0,86,82,74,29.90,29.81,8,2,9,0.00
2013-9-9,85.3,81.2,77.5,79.0,75.8,74.0,88,84,78,29.95,29.83,7,2,12,0.04
2013-9-10,87.6,82.8,78.6,79.0,76.8,73.0,89,82,72,30.00,29.89,15,3,19,0.19
2013-9-11,85.8,82.2,75.9,78.0,76.3,73.0,93,82,72,30.00,29.93,9,2,14,0.01
2013-9-12,89.1,83.9,79.7,78.0,76.4,75.0,85,78,67,29.96,29.86,7,2,9,0.00
2013-9-13,87.4,83.6,81.6,78.0,76.1,73.0,85,78,65,29.86,29.79,8,3,10,0.00
2013-9-14,88.8,84.1,78.5,80.0,77.3,75.0,90,80,71,29.95,29.78,9,3,13,0.01
2013-9-15,90.0,84.1,79.0,80.0,77.8,75.0,91,81,68,30.00,29.89,9,3,15,0.14
2013-9-16,86.4,82.7,79.0,79.0,77.6,75.0,90,84,76,30.00,29.87,10,3,19,0.30
2013-11-9,83.8,79.6,75.2,77.0,75.6,73.0,96,87,78,30.03,29.96,15,7,20,0.62
2013-11-10,82.4,79.3,76.9,78.0,75.6,74.0,92,88,83,30.03,29.94,15,7,21,0.09
2013-11-11,80.4,78.5,76.4,77.0,75.2,74.0,92,89,86,30.04,29.96,15,6,18,0.04
2013-11-12,83.1,79.5,77.8,77.0,75.2,74.0,89,86,81,30.01,29.90,9,2,9,0.00
2013-11-13,79.7,76.8,72.4,74.0,70.5,63.0,92,81,58,30.08,29.91,29,12,32,0.26
2013-11-14,76.2,74.7,73.2,68.0,65.5,64.0,82,73,66,30.15,30.05,20,11,28,0.00
2013-11-15,80.2,77.6,75.3,72.0,69.9,67.0,80,77,73,30.08,29.98,13,6,18,0.00
2013-11-16,81.4,78.1,76.6,74.0,70.8,67.0,82,78,73,30.05,29.97,12,5,16,0.00
2013-11-17,81.0,78.2,76.2,74.0,72.3,70.0,86,82,78,30.04,29.95,10,4,14,0.00
2013-11-18,80.9,77.5,75.6,72.0,70.4,69.0,85,79,71,29.98,29.88,10,3,11,0.00
2013-11-19,84.0,76.6,71.9,72.0,70.0,68.0,89,80,64,29.91,29.83,4,0,7,0.00
2013-11-20,84.1,77.5,70.7,72.0,70.6,67.0,91,80,64,30.04,29.89,4,1,8,0.00
2013-11-21,80.8,77.9,75.0,74.0,71.8,70.0,89,81,74,30.09,30.00,9,3,13,0.00
2013-11-22,79.5,76.6,74.5,75.0,73.2,70.0,94,89,80,30.07,29.97,15,6,20,0.37
2013-11-23,80.8,77.4,74.9,74.0,71.2,68.0,91,81,75,30.02,29.92,10,4,14,0.00
2013-11-24,79.1,76.1,71.1,71.0,69.2,68.0,96,79,70,30.04,29.92,26,7,31,0.24
2013-11-25,76.0,73.8,71.2,72.0,70.2,69.0,95,88,82,30.11,30.01,22,13,28,0.19
2013-11-26,82.9,77.2,72.9,77.0,74.1,71.0,95,90,81,30.02,29.88,12,4,21,0.87
2013-11-27,80.6,75.2,71.6,77.0,72.7,69.0,95,92,82,29.99,29.83,15,2,20,0.09
2013-11-28,74.9,73.5,70.0,70.0,67.8,66.0,94,82,76,30.14,29.98,19,12,24,0.01
2013-11-29,76.1,75.0,71.4,72.0,70.1,68.0,95,85,78,30.15,30.07,24,13,26,0.11
2013-11-30,77.6,74.8,71.1,73.0,70.7,68.0,93,87,80,30.10,30.00,14,7,20,0.07
2013-12-1,78.8,75.6,73.6,72.0,70.5,69.0,89,84,76,30.03,29.90,14,4,14,0.00
2013-12-2,79.5,72.0,68.6,73.0,65.7,-99.9,94,86,73,29.90,29.78,9,1,15,0.07
2013-12-3,77.0,74.1,71.1,68.0,64.5,62.0,85,72,62,30.00,29.84,7,2,11,0.00
2013-12-4,79.1,75.4,71.9,71.0,69.2,66.0,86,81,75,30.08,29.97,9,2,10,0.00
2013-12-5,80.3,77.1,74.7,74.0,71.7,70.0,87,83,77,30.14,30.04,11,3,12,0.00
2013-12-6,79.6,76.7,75.0,72.0,70.2,68.0,88,80,73,30.17,30.07,10,4,12,0.00
2013-12-7,78.7,76.6,75.2,74.0,71.6,70.0,88,84,81,30.17,30.09,12,4,16,0.00
2013-12-8,80.7,77.3,75.5,73.0,71.3,69.0,87,82,76,30.17,30.09,11,4,13,0.00
2013-12-9,80.7,77.1,75.1,73.0,71.4,68.0,91,82,75,30.18,30.08,8,3,12,0.00
2013-12-10,80.7,76.6,75.2,76.0,73.8,72.0,94,90,84,30.14,30.06,6,2,10,0.12
2013-12-11,79.8,77.0,75.1,76.0,74.2,73.0,94,91,86,30.16,30.08,10,2,10,0.00
2013-12-12,79.5,76.6,73.9,74.0,71.8,70.0,91,85,79,30.15,30.05,16,4,21,0.02
2013-12-13,77.6,75.8,74.2,71.0,70.3,68.0,87,83,76,30.13,30.04,17,9,22,0.00
2013-12-14,81.6,77.3,73.5,75.0,73.1,70.0,92,87,77,30.09,29.98,11,3,14,0.00
2013-12-15,83.8,77.6,73.0,76.0,74.0,72.0,96,89,76,30.03,29.95,10,2,13,0.00
2013-12-16,83.4,76.4,72.1,76.0,73.2,71.0,97,90,75,30.06,29.97,5,0,8,0.00
2013-12-17,78.7,75.9,73.5,74.0,72.3,71.0,93,88,82,30.10,30.01,14,6,16,0.06
2013-12-18,76.3,74.9,73.6,71.0,68.8,65.0,91,81,73,30.16,30.05,19,9,21,0.05
2013-12-19,77.0,74.4,72.2,69.0,65.9,62.0,82,75,69,30.19,30.09,14,7,19,0.00
2013-12-20,79.4,76.4,74.6,73.0,71.1,68.0,92,84,78,30.16,30.07,16,5,16,0.00
2013-12-21,81.3,77.5,74.7,76.0,73.3,72.0,93,87,79,30.14,30.05,8,3,13,0.00
2013-12-22,82.6,78.0,74.8,75.0,73.2,71.0,92,85,77,30.16,30.07,12,4,16,0.00
2013-12-23,82.2,77.8,75.6,74.0,73.0,72.0,92,85,73,30.18,30.09,12,4,17,0.00
2013-12-24,79.3,76.5,74.6,73.0,72.0,67.0,92,86,77,30.13,30.02,13,4,18,0.00
2013-12-25,78.8,75.8,73.9,72.0,71.0,69.0,90,85,79,30.07,30.00,17,8,20,0.00
2013-12-26,79.1,76.4,74.3,73.0,71.8,68.0,91,85,80,30.10,30.01,8,5,11,0.00
2013-12-27,79.9,77.0,75.1,75.0,73.4,72.0,92,88,81,30.14,30.05,12,5,17,0.00
2013-12-28,78.4,76.6,75.7,73.0,72.8,72.0,91,88,82,30.16,30.01,17,6,18,0.00
2013-12-29,83.2,77.5,73.8,76.0,74.0,72.0,94,89,78,30.06,29.96,12,2,12,0.32
2013-12-30,84.1,77.7,74.9,77.0,74.6,73.0,96,90,77,30.09,29.98,7,1,9,0.00
2013-12-31,80.1,77.2,74.4,76.0,74.0,72.0,96,90,82,30.15,30.05,18,5,21,0.00
2014-1-1,82.0,77.9,75.8,75.0,72.5,70.0,90,84,75,30.15,30.04,15,4,20,0.00
2014-1-2,82.7,77.9,72.7,74.0,72.3,69.0,91,83,73,30.05,29.89,10,3,15,0.01